Wind_Speed
16 16 16 17 18 18 19 19 20 20 21 21 22 23 23 23 23 25 25 26 27 28 28 28 28 27 28 28 29 30 31 31 32 32 33 33 33 33
16 16 17 18 19 20 20 20 20 21 22 22 23 24 24 25 25 26 26 27 28 28 29 29 29 29 30 30 31 31 32 32 33 33 33 34 34 33
17 18 18 19 19 20 21 21 22 21 22 23 24 25 26 27 27 28 28 29 29 30 30 31 32 32 32 32 33 33 33 33 34 33 33 34 35 35
18 19 19 20 21 21 21 21 21 22 23 24 25 26 27 27 28 29 30 30 30 31 32 32 33 33 34 34 34 34 34 34 34 34 34 35 36 36
18 18 19 19 20 21 22 22 22 23 25 26 26 27 28 28 28 29 30 31 31 32 33 33 34 34 35 34 34 34 34 35 35 36 35 35 36 36
19 20 20 21 21 21 22 23 24 25 26 27 27 28 29 29 30 30 31 32 33 33 33 34 34 34 35 35 36 36 35 35 36 36 36 36 36 36
20 21 22 23 23 24 24 24 25 27 28 28 28 29 30 30 30 31 32 33 33 34 34 34 34 35 35 36 36 36 36 36 37 37 37 36 36 36
22 23 24 25 25 26 26 26 27 28 28 28 29 30 30 30 31 31 32 33 33 34 35 35 35 35 36 36 36 37 37 37 37 37 36 36 37 37
24 24 24 25 26 27 27 27 28 29 29 29 29 30 31 31 31 32 33 34 34 35 36 36 36 36 36 37 37 37 38 38 37 37 36 36 36 37
24 25 25 26 26 26 27 28 29 29 30 30 31 31 32 32 33 33 34 35 35 35 35 36 37 37 37 37 37 38 37 37 36 36 35 35 36 37
25 25 26 26 26 26 27 28 30 30 30 31 32 33 33 33 33 34 34 35 34 35 35 36 37 37 37 37 36 36 36 35 35 35 35 34 35 35
26 26 27 28 28 28 29 30 31 31 31 32 32 32 33 33 33 34 34 34 35 36 36 36 36 36 36 36 35 35 34 34 33 33 33 33 33 33
26 27 28 29 29 30 31 31 31 31 32 33 33 33 33 33 33 33 34 35 35 36 36 36 35 35 35 35 34 34 33 33 33 33 32 32 31 31
27 27 28 29 29 30 31 31 31 32 32 33 33 33 33 33 33 33 34 35 35 35 35 34 34 34 34 34 34 33 33 33 33 32 31 30 30 29
28 28 30 31 32 32 32 32 32 32 33 33 32 32 32 32 32 32 33 34 35 34 33 32 32 33 33 33 34 33 33 32 31 31 30 29 28 28
29 30 32 32 33 33 32 32 33 33 33 32 32 32 32 32 32 33 34 34 34 33 32 32 32 33 33 33 33 32 31 30 30 29 27 27 27 28
31 32 33 33 34 34 34 34 34 34 33 33 32 32 32 33 33 34 34 34 34 34 33 33 33 32 32 32 32 31 30 29 29 28 27 27 28 28
33 33 33 34 34 34 34 34 34 33 33 33 33 32 32 33 33 34 34 34 34 33 33 33 32 32 31 30 29 29 29 29 28 27 27 27 27 27
33 33 34 34 34 34 34 34 34 34 34 33 33 33 33 33 33 33 33 32 32 32 32 31 31 30 29 29 29 29 29 28 28 27 27 27 27 27
34 34 34 34 35 35 35 35 35 34 34 33 33 33 33 32 32 32 31 31 31 31 31 30 29 29 29 29 29 29 28 28 27 27 27 27 26 26
33 33 34 34 34 34 34 34 34 34 33 33 32 32 32 31 31 31 31 31 31 31 30 30 29 29 29 29 28 29 28 27 27 27 27 26 27 27
33 33 34 34 34 34 34 34 33 32 32 32 32 31 31 31 31 31 31 31 31 30 30 30 30 29 29 28 28 28 27 27 27 27 27 27 27 27
32 33 33 33 33 33 33 33 32 32 31 32 32 31 31 31 30 31 30 31 30 30 30 30 29 29 28 29 29 28 27 28 28 28 27 27 27 27
Wind_Direction
273 274 275 277 278 279 281 282 282 282 284 286 286 284 285 286 285 285 286 287 288 288 289 290 291 290 288 289 288 287 286 285 284 283 284 284 283 282
274 275 276 277 279 281 282 282 281 283 282 285 285 286 286 287 287 288 289 289 288 288 290 289 288 287 287 287 288 289 287 287 286 285 284 283 283 282
279 279 280 280 282 283 284 282 283 284 284 285 286 287 287 288 289 290 290 290 288 288 288 287 287 288 288 288 289 289 288 288 289 287 284 283 282 282
282 283 283 283 284 284 285 286 285 285 286 287 288 288 288 290 291 290 291 290 289 288 288 287 288 288 289 290 289 290 289 289 289 288 285 283 282 282
285 286 287 287 288 287 287 287 287 287 288 288 289 290 290 290 291 291 292 291 291 291 290 289 289 289 290 291 290 290 289 289 289 288 287 285 284 282
287 288 288 288 288 288 289 288 287 287 288 289 289 290 290 290 290 291 291 291 291 292 292 291 291 291 291 291 292 292 291 290 289 288 286 285 284 283
289 290 290 288 287 287 288 288 288 288 288 289 289 289 290 291 292 292 292 292 292 293 293 293 293 293 292 292 292 292 291 290 289 288 286 285 283 283
289 290 290 289 287 287 287 288 288 289 288 289 290 291 291 292 293 293 293 293 293 293 293 293 294 294 294 293 292 292 292 291 290 288 287 286 284 283
291 292 293 291 290 289 289 288 289 290 290 291 292 292 292 293 294 294 295 294 294 295 294 294 295 295 294 293 292 292 292 292 290 288 287 286 285 284
292 293 293 293 293 292 291 291 292 291 292 292 293 293 293 294 294 295 295 294 294 294 295 295 296 296 295 294 293 293 292 292 292 291 290 289 287 287
293 294 296 296 295 295 295 295 294 293 292 293 294 293 293 294 294 295 295 295 295 296 297 297 296 296 296 295 294 293 292 292 292 291 291 291 290 289
294 295 296 297 295 295 296 296 296 295 293 294 295 294 295 295 294 295 295 295 296 297 298 297 296 296 296 296 296 294 293 293 292 293 292 292 292 291
293 295 296 296 295 295 295 296 295 295 295 295 296 295 296 296 296 295 295 296 297 297 297 297 297 298 297 297 296 295 294 293 292 293 293 293 293 292
293 293 295 295 295 295 296 297 296 295 296 297 297 297 297 296 295 295 297 298 298 298 299 299 299 298 297 297 297 296 295 294 293 293 293 293 292 292
294 296 297 296 296 296 297 296 297 297 297 297 297 297 297 297 297 297 297 298 299 300 300 300 300 299 298 297 297 297 296 294 294 293 293 292 292 292
293 294 295 296 296 296 297 297 298 299 299 298 299 299 299 298 298 298 299 299 299 299 300 300 299 299 298 298 298 297 296 295 295 294 293 292 292 292
293 293 294 295 296 297 297 298 298 298 298 299 299 298 298 298 298 298 298 299 299 299 298 299 298 297 298 298 297 296 295 295 295 294 293 292 293 293
293 294 294 295 295 295 296 298 298 298 298 298 298 297 297 297 297 298 298 298 298 298 298 298 298 298 298 298 298 298 296 295 294 293 293 292 293 293
292 294 294 295 296 296 297 298 298 298 299 299 299 298 298 297 297 298 299 299 299 299 299 299 299 299 298 297 297 296 296 295 295 294 292 291 291 292
293 294 295 296 296 297 298 298 298 298 298 298 297 297 297 298 298 298 299 300 300 299 299 299 299 299 298 298 297 297 297 295 295 294 293 292 292 292
293 294 296 297 297 297 298 299 298 298 298 297 297 296 296 297 297 297 298 299 299 299 298 298 298 298 298 298 297 297 297 296 296 296 294 293 293 294
293 294 296 297 297 297 299 300 300 299 298 298 297 296 296 296 296 296 297 297 297 297 297 298 298 298 297 296 296 296 296 296 296 295 295 294 294 293
294 296 297 298 298 299 300 300 300 299 298 297 297 297 296 295 296 297 297 297 297 297 297 299 299 297 296 296 296 295 295 296 296 295 295 296 296 295
Height
5887 5887 5887 5886 5885 5884 5883 5882 5881 5880 5878 5876 5875 5874 5872 5871 5869 5867 5866 5864 5862 5861 5859 5857 5855 5853 5851 5850 5848 5846 5844 5842 5840 5839 5837 5835 5833 5831
5883 5882 5882 5881 5880 5879 5878 5877 5876 5875 5873 5871 5869 5868 5866 5865 5863 5861 5859 5857 5855 5854 5852 5850 5848 5846 5844 5842 5840 5838 5836 5834 5832 5830 5828 5826 5824 5822
5879 5878 5877 5877 5875 5874 5873 5872 5871 5869 5868 5866 5864 5862 5860 5858 5856 5854 5852 5850 5848 5846 5844 5842 5840 5838 5835 5833 5831 5829 5827 5825 5823 5820 5818 5816 5815 5813
5875 5874 5873 5872 5870 5869 5868 5866 5865 5863 5862 5860 5858 5856 5854 5852 5850 5848 5845 5843 5841 5839 5836 5834 5832 5829 5827 5825 5823 5820 5818 5816 5813 5811 5809 5807 5805 5803
5870 5869 5868 5866 5865 5863 5862 5860 5859 5857 5856 5854 5852 5849 5847 5845 5843 5841 5838 5835 5833 5831 5828 5826 5823 5821 5818 5816 5813 5811 5809 5806 5804 5801 5799 5797 5794 5792
5866 5864 5863 5861 5859 5858 5856 5854 5853 5851 5849 5847 5845 5843 5841 5838 5836 5833 5831 5828 5825 5823 5820 5817 5814 5812 5809 5807 5804 5802 5799 5796 5794 5791 5789 5786 5784 5782
5860 5859 5857 5855 5853 5852 5850 5848 5846 5844 5842 5840 5838 5835 5833 5831 5828 5825 5823 5820 5817 5814 5811 5808 5806 5803 5800 5797 5794 5791 5789 5786 5783 5781 5778 5776 5774 5771
5855 5853 5851 5849 5847 5845 5843 5841 5839 5837 5835 5833 5830 5828 5825 5823 5820 5817 5814 5812 5809 5806 5802 5799 5796 5794 5791 5788 5784 5781 5779 5776 5773 5770 5768 5765 5763 5761
5848 5847 5845 5842 5840 5838 5836 5834 5832 5829 5827 5825 5823 5820 5818 5815 5812 5809 5806 5803 5800 5796 5793 5790 5787 5784 5781 5778 5774 5771 5768 5765 5762 5760 5757 5754 5752 5750
5843 5841 5838 5836 5833 5831 5829 5827 5824 5822 5819 5817 5815 5812 5809 5806 5803 5800 5797 5794 5790 5787 5784 5781 5777 5774 5771 5768 5764 5761 5758 5755 5752 5749 5747 5744 5741 5739
5836 5834 5832 5829 5827 5824 5822 5819 5817 5814 5811 5809 5806 5803 5800 5797 5794 5791 5788 5784 5781 5778 5774 5771 5768 5764 5761 5757 5754 5751 5748 5744 5742 5739 5736 5733 5730 5728
5830 5827 5825 5822 5819 5817 5814 5811 5809 5806 5803 5801 5798 5795 5791 5788 5785 5782 5779 5776 5772 5769 5765 5761 5758 5754 5751 5748 5744 5740 5737 5734 5732 5729 5726 5723 5720 5718
5822 5820 5817 5815 5812 5810 5807 5804 5801 5798 5795 5792 5789 5786 5783 5779 5776 5772 5769 5766 5763 5759 5756 5752 5748 5745 5741 5738 5735 5731 5728 5725 5722 5719 5717 5714 5711 5708
5816 5813 5810 5808 5805 5802 5799 5796 5793 5790 5787 5783 5780 5777 5774 5770 5767 5763 5760 5757 5754 5750 5746 5742 5739 5735 5732 5729 5726 5722 5719 5716 5713 5710 5707 5705 5702 5700
5808 5806 5803 5800 5797 5794 5791 5788 5785 5781 5778 5774 5771 5768 5765 5761 5758 5755 5751 5748 5744 5741 5737 5733 5730 5726 5723 5720 5717 5713 5710 5707 5704 5701 5698 5696 5694 5692
5800 5798 5795 5792 5789 5786 5782 5779 5776 5772 5769 5766 5762 5759 5756 5752 5749 5746 5743 5739 5735 5732 5728 5725 5721 5718 5715 5711 5708 5704 5701 5698 5695 5693 5690 5688 5686 5684
5792 5789 5786 5783 5780 5777 5774 5770 5767 5763 5760 5757 5753 5750 5747 5743 5740 5737 5733 5730 5726 5723 5719 5716 5712 5709 5705 5702 5699 5696 5693 5690 5687 5685 5682 5680 5678 5676
5783 5780 5777 5774 5771 5768 5765 5761 5758 5754 5751 5748 5744 5741 5738 5734 5731 5727 5724 5720 5717 5713 5710 5707 5703 5700 5697 5694 5691 5688 5685 5682 5680 5677 5675 5672 5670 5668
5774 5771 5768 5765 5762 5758 5755 5751 5748 5745 5741 5738 5735 5731 5728 5725 5721 5718 5714 5711 5707 5704 5701 5698 5694 5691 5689 5686 5683 5680 5677 5674 5672 5669 5667 5664 5662 5660
5765 5762 5759 5756 5752 5749 5745 5742 5739 5735 5732 5728 5725 5722 5718 5715 5711 5708 5705 5702 5698 5695 5692 5689 5686 5683 5680 5678 5675 5672 5669 5666 5664 5661 5659 5656 5654 5652
5755 5752 5749 5746 5743 5739 5736 5732 5729 5725 5722 5719 5715 5712 5709 5705 5702 5699 5696 5693 5690 5686 5683 5681 5678 5675 5671 5669 5666 5664 5661 5658 5656 5653 5651 5649 5646 5644
5746 5743 5740 5737 5733 5730 5726 5723 5719 5716 5713 5709 5706 5703 5699 5696 5693 5690 5687 5684 5681 5678 5675 5672 5669 5666 5663 5661 5658 5655 5653 5650 5648 5645 5643 5641 5638 5636
5737 5734 5730 5727 5724 5720 5717 5713 5710 5706 5703 5700 5697 5693 5690 5687 5684 5681 5678 5675 5672 5669 5666 5663 5660 5657 5655 5652 5650 5647 5644 5642 5639 5637 5635 5632 5630 5627